Location: Poigny-la-Forêt
(48.6876°N, 1.7701°E)
Time: 00:24:21
(UTC+02:00)

Envisat - Pass Details

Date: 27 March 2019
Orbit: 764 x 766 km, 98.1° (Epoch: 22 October)

Event Time Altitude Azimuth Distance (km) Brightness Sun altitude
Rises 19:52:01 0° 182° (S) 3,217 6.1 -6.8°
Reaches altitude 10° 19:54:24 10° 188° (S) 2,295 5.4 -7.1°
Maximum altitude 19:59:16 46° 262° (W) 1,018 4.2 -7.9°
Drops below altitude 10° 20:04:10 10° 335° (NNW) 2,313 6.1 -8.7°
Sets 20:06:35 0° 342° (NNW) 3,244 6.7 -9.1°
